Location: Ward Pound Ridge Reservation
(41.2500°N, 73.6000°W)
Time: 13:52:03
(UTC-05:00)

Envisat - Pass Details

Date: 07 October 2017
Orbit: 764 x 766 km, 98.2° (Epoch: 16 December)

Event Time Altitude Azimuth Distance (km) Brightness Sun altitude
Exits shadow 21:18:28 42° 272° (W) 1,079 4.0 -32.6°
Drops below altitude 10° 21:22:59 10° 333° (NNW) 2,312 6.0 -33.4°
Sets 21:25:25 0° 340° (NNW) 3,243 6.8 -33.8°
